FW5436 Weather Reports


Display with metric or nautical units.
time (UTC)temp
F
wind
direction
speed
MPH
gust
MPH
rain 1hr
in
rain 24hr
in
rain mn
in
humidity
%
barometer
mb
20260904053938 41 90 1.0 2.0 0.00 0.00 0.00 94 1014.1
20260904053429 41 45 2.0 0.0 0.00 0.00 0.00 94 1014.3
20260904053210 41 45 2.0 0.0 0.00 0.00 0.00 94 1014.3
20260904052647 41 45 1.0 2.0 0.00 0.35 0.00 94 1014.2
20260904052135 41 23 1.0 2.0 0.00 0.35 0.00 94 1014.2
20260904051626 41 68 0.0 2.0 0.00 0.35 0.00 94 1014.4
20260904051117 42 68 1.0 2.0 0.00 0.35 0.00 94 1014.3
20260904050606 42 45 1.0 2.0 0.00 0.35 0.00 94 1014.3
20260904050055 42 68 2.0 2.0 0.00 0.35 0.00 94 1014.2
20260904045035 42 45 1.0 2.0 0.00 0.35 0.00 94 1014.2
20260904044535 42 45 0.0 2.0 0.00 0.35 0.00 94 1014.4
20260904044014 42 68 0.0 2.0 0.00 0.35 0.00 94 1014.2
20260904043504 42 45 1.0 2.0 0.00 0.35 0.00 94 1014.2
20260904042954 42 45 0.0 2.0 0.00 0.35 0.00 94 1014.2
20260904042445 42 45 1.0 2.0 0.00 0.35 0.00 94 1014.3
20260904041934 42 68 0.0 2.0 0.00 0.35 0.00 93 1014.2
20260904041424 43 45 0.0 2.0 0.00 0.35 0.00 94 1014.0
20260904035854 43 68 1.0 2.0 0.00 0.35 0.00 94 1014.0
20260904035343 43 45 0.0 2.0 0.00 0.35 0.00 94 1013.9
20260904034837 43 68 0.0 2.0 0.00 0.35 0.00 94 1013.8
20260904034324 43 45 0.0 2.0 0.00 0.35 0.00 94 1013.9
20260904033814 43 45 0.0 2.0 0.00 0.35 0.00 94 1014.0
20260904033303 43 45 0.0 2.0 0.00 0.35 0.00 94 1014.0
20260904032753 43 45 0.0 2.0 0.00 0.35 0.00 94 1013.7
20260904032243 43 68 1.0 2.0 0.00 0.35 0.00 94 1013.7
20260904031222 43 68 1.0 2.0 0.00 0.35 0.00 94 1013.8
20260904030714 44 45 0.0 2.0 0.00 0.35 0.00 95 1013.6
20260904030202 44 45 1.0 2.0 0.00 0.35 0.00 95 1013.6
20260904025652 44 90 1.0 2.0 0.00 0.35 0.44 95 1013.7
20260904025141 44 0 0.0 2.0 0.00 0.35 0.44 95 1013.7
20260904024126 44 0 0.0 2.0 0.00 0.35 0.44 95 1013.7
20260904023101 44 45 0.0 2.0 0.00 0.35 0.44 95 1013.7
20260904022551 44 0 0.0 2.0 0.00 0.35 0.44 95 1013.7
20260904022041 44 45 0.0 2.0 0.00 0.35 0.44 95 1013.6
20260904021530 45 45 0.0 2.0 0.00 0.35 0.44 95 1013.6
20260904021021 45 45 0.0 2.0 0.00 0.35 0.44 94 1013.8
20260904020510 45 23 0.0 2.0 0.00 0.35 0.44 94 1013.5
20260904020000 45 45 0.0 0.0 0.00 0.35 0.44 94 1013.6
20260904015450 45 45 0.0 0.0 0.00 0.35 0.44 94 1013.6
20260904014429 46 45 0.0 0.0 0.00 0.35 0.44 94 1013.4
20260904013919 46 45 0.0 0.0 0.00 0.35 0.44 93 1013.3
20260904013410 46 45 0.0 0.0 0.00 0.35 0.44 93 1013.5
20260904012900 46 45 0.0 0.0 0.00 0.35 0.44 93 1013.4
20260904011838 46 45 0.0 2.0 0.00 0.35 0.44 92 1013.2
20260904011334 46 45 0.0 2.0 0.00 0.35 0.44 92 1013.3
20260904010818 47 45 0.0 2.0 0.00 0.35 0.44 92 1013.1
20260904005759 47 45 0.0 2.0 0.00 0.35 0.44 91 1013.2
20260904005248 47 45 0.0 2.0 0.00 0.35 0.44 90 1012.9
20260904004738 47 68 0.0 2.0 0.00 0.35 0.44 90 1012.9
20260904004228 47 68 1.0 2.0 0.00 0.35 0.44 90 1013.0
20260904003208 48 0 0.0 2.0 0.00 0.35 0.44 89 1012.9
20260904002657 48 23 0.0 2.0 0.00 0.35 0.44 89 1012.7
20260904002147 48 23 0.0 2.0 0.00 0.35 0.44 89 1012.6
20260904001638 48 45 0.0 2.0 0.00 0.35 0.44 89 1012.7
20260904000107 48 158 0.0 2.0 0.00 0.35 0.44 88 1012.5
20260903235558 48 113 1.0 2.0 0.00 0.35 0.44 88 1012.4
20260903235047 49 135 0.0 2.0 0.00 0.35 0.44 88 1012.4
20260903234028 49 90 0.0 2.0 0.00 0.35 0.44 87 1012.2
20260903233516 49 135 0.0 2.0 0.00 0.35 0.44 87 1012.2
20260903233011 49 113 0.0 2.0 0.00 0.35 0.44 87 1012.3
20260903232456 49 45 0.0 2.0 0.00 0.35 0.44 87 1012.2
20260903231945 50 113 0.0 2.0 0.00 0.35 0.44 86 1012.1
20260903230926 50 113 0.0 2.0 0.00 0.35 0.44 86 1011.8
20260903230415 50 135 1.0 2.0 0.00 0.35 0.44 86 1012.0
20260903225905 50 180 1.0 4.0 0.00 0.35 0.44 86 1011.9
20260903225355 50 158 1.0 4.0 0.00 0.35 0.44 87 1011.8
20260903224845 50 180 2.0 4.0 0.00 0.35 0.44 88 1011.8
20260903224334 50 113 2.0 2.0 0.00 0.35 0.44 89 1011.9
20260903223824 51 135 1.0 2.0 0.00 0.35 0.44 89 1011.8
20260903223314 51 68 1.0 4.0 0.00 0.35 0.44 90 1011.7
20260903222805 51 225 2.0 6.0 0.00 0.35 0.44 90 1011.7
20260903222254 50 203 1.0 6.0 0.00 0.35 0.44 91 1011.3
20260903221233 51 135 0.0 4.0 0.00 0.35 0.44 91 1011.1
20260903220725 51 135 2.0 4.0 0.00 0.35 0.44 92 1011.1
20260903220214 51 90 1.0 2.0 0.00 0.35 0.44 92 1011.1
20260903215704 51 90 2.0 7.0 0.00 0.35 0.44 92 1010.8
20260903215153 51 135 1.0 7.0 0.00 0.35 0.44 92 1010.8
20260903214643 51 225 2.0 4.0 0.00 0.35 0.44 92 1010.7
20260903213623 51 23 2.0 4.0 0.00 0.35 0.44 92 1010.5
20260903213113 51 180 2.0 4.0 0.00 0.35 0.44 92 1010.5
20260903212602 51 0 1.0 4.0 0.01 0.35 0.44 92 1010.5
20260903212052 52 113 2.0 6.0 0.04 0.35 0.44 92 1010.3
20260903211543 52 90 2.0 6.0 0.04 0.35 0.44 92 1010.2
20260903210013 52 203 1.0 4.0 0.04 0.35 0.44 92 1009.9
20260903204952 52 135 2.0 4.0 0.04 0.35 0.44 92 1009.8
20260903204441 52 248 2.0 4.0 0.04 0.35 0.44 92 1009.9
20260903203931 53 203 2.0 4.0 0.04 0.35 0.44 92 1009.8
20260903203421 53 338 0.0 2.0 0.04 0.35 0.44 92 1009.7
20260903202404 52 338 1.0 6.0 0.08 0.34 0.43 92 1009.1
20260903201851 53 180 2.0 6.0 0.15 0.32 0.40 92 1009.6
20260903201341 54 68 2.0 6.0 0.26 0.32 0.40 92 1009.6
20260903200831 54 158 1.0 7.0 0.27 0.32 0.40 92 1009.4
20260903194750 53 158 2.0 4.0 0.32 0.32 0.40 93 1009.2
20260903194240 53 135 1.0 4.0 0.32 0.32 0.40 92 1008.9
20260903193729 53 23 1.0 4.0 0.32 0.32 0.40 92 1008.9
20260903193219 52 203 1.0 4.0 0.32 0.32 0.40 92 1008.6
20260903191649 53 158 1.0 6.0 0.11 0.11 0.19 89 1008.5
20260903190628 54 225 2.0 7.0 0.04 0.04 0.12 86 1008.5
20260903185609 56 248 3.0 7.0 0.00 0.00 0.08 81 1008.5
20260903185058 56 135 4.0 7.0 0.00 0.00 0.08 79 1008.4
20260903184549 57 225 2.0 8.0 0.00 0.00 0.08 78 1008.4
20260903183528 58 248 5.0 8.0 0.00 0.00 0.08 77 1008.3
20260903183019 58 293 1.0 7.0 0.00 0.00 0.08 77 1008.3
20260903181957 58 270 1.0 8.0 0.00 0.00 0.08 77 1008.1
20260903180937 58 203 4.0 8.0 0.00 0.00 0.08 77 1008.2
20260903180427 57 180 3.0 8.0 0.00 0.00 0.08 77 1008.0
20260903175916 58 225 2.0 7.0 0.00 0.00 0.08 77 1008.0
20260903175408 57 225 2.0 11.0 0.00 0.00 0.08 77 1007.9
20260903174858 57 158 2.0 11.0 0.00 0.00 0.08 76 1008.0
20260903174346 59 248 2.0 9.0 0.00 0.00 0.08 74 1008.1
20260903173837 60 293 4.0 13.0 0.00 0.00 0.08 73 1007.9
20260903173326 59 113 2.0 13.0 0.00 0.00 0.08 73 1007.8
20260903172816 60 225 2.0 8.0 0.00 0.00 0.08 71 1007.9
20260903172306 59 135 2.0 8.0 0.00 0.00 0.08 72 1007.9
20260903171755 58 180 2.0 9.0 0.00 0.00 0.08 75 1007.9
20260903170735 57 23 4.0 7.0 0.00 0.00 0.08 76 1007.9
20260903165720 57 158 2.0 11.0 0.00 0.00 0.08 77 1008.1
20260903165205 57 248 4.0 11.0 0.00 0.00 0.08 76 1008.0
20260903164655 58 203 2.0 8.0 0.00 0.00 0.08 76 1008.1
20260903164148 57 203 3.0 7.0 0.00 0.00 0.08 76 1008.1
20260903163126 59 158 4.0 8.0 0.00 0.00 0.08 73 1008.1
20260903162614 59 203 1.0 9.0 0.00 0.00 0.08 75 1008.2
20260903160534 59 225 3.0 8.0 0.00 0.00 0.08 75 1007.9
20260903160023 60 248 4.0 8.0 0.00 0.00 0.08 73 1008.4
20260903155513 62 225 1.0 6.0 0.00 0.00 0.08 70 1008.4
20260903155003 65 158 2.0 4.0 0.00 0.00 0.08 64 1008.5
20260903154452 64 180 1.0 6.0 0.00 0.00 0.08 60 1008.8
20260903153943 63 225 2.0 6.0 0.00 0.00 0.08 63 1008.5
20260903153432 63 23 2.0 6.0 0.00 0.00 0.08 62 1008.5
20260903152923 64 270 1.0 7.0 0.00 0.00 0.08 61 1008.5
20260903152412 64 45 1.0 7.0 0.00 0.00 0.08 61 1008.3
20260903151902 63 113 1.0 6.0 0.00 0.00 0.08 63 1008.0
20260903151352 64 90 1.0 6.0 0.00 0.00 0.08 60 1008.2
20260903150842 63 0 2.0 4.0 0.00 0.00 0.08 62 1008.2
20260903150331 63 68 2.0 7.0 0.00 0.00 0.08 64 1008.2
20260903145823 63 68 2.0 7.0 0.00 0.00 0.08 62 1008.2
20260903145311 64 68 2.0 6.0 0.00 0.00 0.08 60 1008.3
20260903144801 63 113 2.0 11.0 0.00 0.00 0.08 62 1008.1
20260903144251 62 45 2.0 11.0 0.00 0.00 0.08 65 1008.3
20260903143231 62 90 2.0 7.0 0.00 0.00 0.08 66 1008.4
20260903142211 61 23 2.0 6.0 0.00 0.00 0.08 67 1008.6
20260903141705 62 113 2.0 7.0 0.00 0.00 0.08 69 1008.5
20260903141151 61 45 2.0 7.0 0.00 0.00 0.08 69 1008.6
20260903140640 61 135 2.0 6.0 0.00 0.00 0.08 70 1008.5
20260903140130 61 180 1.0 6.0 0.00 0.00 0.08 72 1008.3
20260903135620 61 0 2.0 6.0 0.00 0.00 0.08 73 1008.2
20260903135109 61 23 2.0 6.0 0.00 0.00 0.08 74 1008.0
20260903134600 60 90 1.0 6.0 0.00 0.00 0.08 75 1008.1
20260903134050 60 225 2.0 4.0 0.00 0.00 0.08 75 1008.2
20260903133540 60 113 2.0 4.0 0.00 0.00 0.08 76 1008.3
20260903133030 60 68 2.0 4.0 0.00 0.00 0.08 75 1008.1
20260903132008 59 68 2.0 6.0 0.00 0.00 0.08 77 1008.3
20260903131458 59 68 2.0 6.0 0.00 0.00 0.08 78 1008.3
20260903130949 59 293 1.0 6.0 0.00 0.00 0.08 78 1008.2
20260903130438 58 158 1.0 6.0 0.00 0.00 0.08 79 1008.4
20260903125932 57 68 1.0 4.0 0.00 0.00 0.08 81 1008.1
20260903125418 56 45 2.0 4.0 0.00 0.00 0.08 81 1008.0
20260903124910 57 90 1.0 4.0 0.00 0.00 0.08 80 1008.1
20260903124357 58 113 2.0 4.0 0.00 0.00 0.08 79 1007.9
20260903123338 56 45 2.0 7.0 0.00 0.00 0.08 81 1008.1
20260903122828 57 90 1.0 4.0 0.00 0.00 0.08 81 1008.1
20260903122317 56 68 1.0 4.0 0.00 0.00 0.08 83 1007.9
20260903121807 55 158 2.0 4.0 0.00 0.00 0.08 86 1007.8
20260903121257 55 68 2.0 4.0 0.00 0.00 0.08 88 1007.8
20260903120746 53 45 2.0 6.0 0.00 0.00 0.08 89 1008.1
20260903120236 53 90 2.0 6.0 0.00 0.00 0.08 91 1008.2
20260903115726 53 68 2.0 4.0 0.00 0.00 0.08 92 1008.5
20260903115216 52 45 2.0 4.0 0.00 0.00 0.08 92 1008.5
20260903114156 51 23 2.0 4.0 0.00 0.00 0.08 93 1008.0
20260903113646 51 68 2.0 4.0 0.00 0.00 0.08 94 1007.9
20260903112625 51 68 2.0 4.0 0.00 0.00 0.08 94 1007.8
20260903112116 51 45 1.0 4.0 0.00 0.00 0.08 94 1007.5
20260903111055 51 68 0.0 4.0 0.00 0.00 0.08 94 1007.1
20260903110547 50 68 1.0 4.0 0.00 0.00 0.08 94 1007.0
20260903110035 50 68 1.0 4.0 0.00 0.00 0.08 94 1006.7
20260903105525 51 45 1.0 4.0 0.00 0.00 0.08 94 1007.0
20260903105014 51 45 1.0 4.0 0.00 0.00 0.08 94 1007.0
20260903103954 50 68 1.0 2.0 0.00 0.00 0.08 94 1006.1
20260903102934 50 68 1.0 2.0 0.00 0.00 0.08 94 1007.0
20260903102423 51 0 0.0 2.0 0.00 0.00 0.08 94 1006.8
20260903101913 51 68 1.0 2.0 0.00 0.00 0.08 94 1006.5
20260903101403 51 0 1.0 2.0 0.00 0.00 0.08 93 1006.4
20260903100854 51 68 1.0 2.0 0.00 0.00 0.08 93 1006.6
20260903100344 51 68 0.0 2.0 0.00 0.00 0.08 93 1006.2
20260903095833 51 68 1.0 2.0 0.00 0.00 0.08 93 1006.3
20260903095323 51 315 0.0 4.0 0.00 0.00 0.08 92 1006.2
20260903094814 52 45 1.0 4.0 0.00 0.00 0.08 92 1006.3
20260903093753 52 90 2.0 4.0 0.00 0.00 0.08 92 1006.8
20260903093242 52 68 1.0 4.0 0.00 0.00 0.08 92 1006.3
20260903092222 52 68 2.0 4.0 0.00 0.00 0.08 92 1006.5
20260903091718 52 45 2.0 6.0 0.00 0.00 0.08 92 1005.4
20260903091203 52 68 2.0 6.0 0.00 0.00 0.08 92 1006.3
20260903090653 52 68 1.0 4.0 0.00 0.00 0.08 91 1005.8
20260903090141 52 45 1.0 4.0 0.00 0.00 0.08 91 1005.6
20260903085631 52 68 2.0 4.0 0.00 0.00 0.08 91 1005.3
20260903084612 52 45 1.0 7.0 0.00 0.00 0.08 91 1005.8
20260903084102 52 45 2.0 6.0 0.00 0.00 0.08 91 1006.3
20260903083556 52 113 2.0 6.0 0.00 0.00 0.08 92 1006.6
20260903083048 52 90 2.0 7.0 0.00 0.00 0.08 92 1006.7
20260903082531 52 45 3.0 9.0 0.00 0.00 0.08 92 1006.9
20260903082020 52 68 2.0 9.0 0.00 0.00 0.08 93 1007.1
20260903081511 52 315 2.0 6.0 0.00 0.00 0.08 93 1007.0
20260903081000 52 90 2.0 6.0 0.00 0.00 0.08 94 1006.5
20260903080450 52 45 2.0 6.0 0.00 0.00 0.08 94 1006.6
20260903075430 52 68 2.0 4.0 0.00 0.00 0.08 94 1005.9
20260903074920 52 0 2.0 4.0 0.00 0.00 0.08 94 1006.2
20260903074409 52 45 2.0 4.0 0.00 0.00 0.08 94 1006.0
20260903073904 52 68 3.0 4.0 0.00 0.00 0.08 94 1005.4
20260903073349 52 90 1.0 4.0 0.00 0.00 0.08 94 1005.3
20260903072840 52 23 2.0 4.0 0.00 0.00 0.08 94 1005.8
20260903072328 52 90 2.0 4.0 0.00 0.00 0.08 94 1005.8
20260903071820 52 68 2.0 4.0 0.00 0.00 0.08 94 1005.5
20260903070758 53 68 2.0 4.0 0.00 0.00 0.08 94 1006.2
20260903070248 53 68 2.0 4.0 0.00 0.00 0.08 94 1006.6
20260903065739 53 90 1.0 4.0 0.00 0.00 0.08 94 1006.7
20260903065228 53 45 2.0 6.0 0.00 0.00 0.08 94 1006.6
20260903064208 53 45 2.0 8.0 0.00 0.00 0.08 94 1006.5
20260903062637 53 45 2.0 7.0 0.00 0.00 0.08 94 1006.7
20260903062128 53 90 1.0 7.0 0.00 0.00 0.08 94 1006.3
20260903061617 53 68 3.0 7.0 0.00 0.00 0.08 94 1007.1
20260903061107 53 68 3.0 6.0 0.00 0.00 0.08 94 1006.9
20260903060557 53 45 2.0 4.0 0.00 0.00 0.08 94 1006.7
20260903060047 53 68 2.0 6.0 0.00 0.00 0.08 94 1006.4
20260903055537 53 68 2.0 6.0 0.00 0.00 0.08 94 1006.3
20260903055026 53 23 2.0 9.0 0.00 0.00 0.08 93 1006.6